When you browse on this site, cookies collect data to enhance your experience and personalize the content and advertising you see.
Visit our Privacy Policy to learn more. By continuing to use the site, you agree to this use of cookies and data.
  • In France
  • List of Countries
  • For 7 days
  • Water Temperature
  • Satellite Maps
  • Weather Map
  • Weather Widgets
  • user-avatar
    Login

    Hourly Weather Belmopan

    Today, 19 February, Tuesday

    Time Temperature Precipitation Wind Pressure Humidity
    00:00 +24°C° 0 mm 1 mps 752 mmHg 98%
    01:00 +23°C° 0 mm 0 mps 752 mmHg 98%
    02:00 +23°C° 0 mm 0 mps 752 mmHg 98%
    03:00 +23°C° 0 mm 0 mps 752 mmHg 97%
    04:00 +24°C° 0.1 mm 0 mps 752 mmHg 97%
    05:00 +24°C° 0.1 mm 0 mps 752 mmHg 97%
    06:00 +24°C° 0.1 mm 0 mps 752 mmHg 97%
    07:00 +25°C° 0.1 mm 0 mps 753 mmHg 93%
    08:00 +26°C° 0.1 mm 0 mps 753 mmHg 89%
    09:00 +26°C° 0.1 mm 0 mps 754 mmHg 86%
    10:00 +29°C° 0.1 mm 1 mps 754 mmHg 80%
    11:00 +30°C° 0.1 mm 1 mps 753 mmHg 74%
    12:00 +32°C° 0.1 mm 2 mps 753 mmHg 68%
    13:00 +32°C° 0.1 mm 2 mps 752 mmHg 66%
    14:00 +34°C° 0.1 mm 2 mps 752 mmHg 64%
    15:00 +34°C° 0.1 mm 3 mps 751 mmHg 61%
    16:00 +31°C° 0 mm 2 mps 751 mmHg 66%
    17:00 +30°C° 0 mm 2 mps 751 mmHg 70%
    18:00 +28°C° 0 mm 2 mps 750 mmHg 74%
    19:00 +27°C° 0 mm 2 mps 751 mmHg 80%
    20:00 +26°C° 0 mm 2 mps 751 mmHg 86%
    21:00 +25°C° 0 mm 1 mps 752 mmHg 92%
    22:00 +25°C° 0 mm 1 mps 752 mmHg 92%
    23:00 +25°C° 0 mm 1 mps 751 mmHg 92%

    Tomorrow, 20 February, Wednesday

    Time Temperature Precipitation Wind Pressure Humidity
    00:00 +25°C° 0 mm 1 mps 751 mmHg 92%
    01:00 +25°C° 0 mm 1 mps 751 mmHg 87%
    02:00 +24°C° 0 mm 1 mps 751 mmHg 83%
    03:00 +24°C° 0 mm 2 mps 750 mmHg 79%
    04:00 +24°C° 0 mm 1 mps 750 mmHg 79%
    05:00 +24°C° 0 mm 1 mps 750 mmHg 79%
    06:00 +24°C° 0 mm 1 mps 750 mmHg 79%
    07:00 +26°C° 0 mm 2 mps 751 mmHg 70%
    08:00 +28°C° 0 mm 2 mps 751 mmHg 61%
    09:00 +30°C° 0 mm 3 mps 752 mmHg 52%
    10:00 +31°C° 0 mm 3 mps 751 mmHg 48%
    11:00 +34°C° 0 mm 3 mps 751 mmHg 43%
    12:00 +35°C° 0 mm 3 mps 751 mmHg 38%
    13:00 +35°C° 0 mm 3 mps 750 mmHg 39%
    14:00 +35°C° 0 mm 3 mps 749 mmHg 40%
    15:00 +34°C° 0 mm 3 mps 748 mmHg 40%
    16:00 +31°C° 0 mm 3 mps 748 mmHg 50%
    17:00 +29°C° 0 mm 2 mps 749 mmHg 59%
    18:00 +27°C° 0 mm 2 mps 749 mmHg 68%
    19:00 +26°C° 0 mm 2 mps 749 mmHg 75%
    20:00 +25°C° 0 mm 2 mps 750 mmHg 83%
    21:00 +24°C° 0 mm 1 mps 750 mmHg 90%
    22:00 +24°C° 0 mm 1 mps 751 mmHg 92%
    23:00 +24°C° 0 mm 1 mps 751 mmHg 95%

    Day after tomorrow, 21 February, Thursday

    Time Temperature Precipitation Wind Pressure Humidity
    00:00 +24°C° 0 mm 1 mps 751 mmHg 97%
    01:00 +24°C° 0 mm 1 mps 750 mmHg 98%
    02:00 +24°C° 0 mm 1 mps 750 mmHg 98%
    03:00 +24°C° 0 mm 1 mps 750 mmHg 98%
    04:00 +24°C° 0 mm 1 mps 750 mmHg 98%
    05:00 +24°C° 0 mm 1 mps 750 mmHg 98%
    06:00 +24°C° 0 mm 1 mps 750 mmHg 98%
    07:00 +26°C° 0 mm 1 mps 751 mmHg 90%
    08:00 +28°C° 0 mm 1 mps 752 mmHg 81%
    09:00 +30°C° 0 mm 2 mps 752 mmHg 73%
    10:00 +31°C° 0.1 mm 2 mps 752 mmHg 64%
    11:00 +34°C° 0.1 mm 2 mps 752 mmHg 56%
    12:00 +36°C° 0.1 mm 2 mps 751 mmHg 47%
    13:00 +35°C° 0.2 mm 2 mps 751 mmHg 50%
    14:00 +35°C° 0.2 mm 2 mps 750 mmHg 53%
    15:00 +34°C° 0.2 mm 3 mps 749 mmHg 56%
    16:00 +32°C° 0.1 mm 2 mps 749 mmHg 62%
    17:00 +30°C° 0.1 mm 2 mps 749 mmHg 69%
    18:00 +28°C° 0.1 mm 2 mps 750 mmHg 76%
    19:00 +27°C° 0 mm 2 mps 750 mmHg 82%
    20:00 +26°C° 0 mm 2 mps 751 mmHg 87%
    21:00 +25°C° 0 mm 1 mps 752 mmHg 93%
    22:00 +25°C° 0 mm 1 mps 752 mmHg 94%
    23:00 +25°C° 0 mm 1 mps 752 mmHg 96%

    22 February, Friday

    Time Temperature Precipitation Wind Pressure Humidity
    00:00 +25°C° 0 mm 1 mps 751 mmHg 97%
    01:00 +25°C° 0 mm 1 mps 751 mmHg 97%
    02:00 +25°C° 0 mm 1 mps 751 mmHg 98%
    03:00 +25°C° 0 mm 1 mps 750 mmHg 98%
    04:00 +25°C° 0 mm 1 mps 751 mmHg 98%
    05:00 +25°C° 0 mm 1 mps 751 mmHg 98%
    06:00 +24°C° 0 mm 1 mps 752 mmHg 98%
    07:00 +26°C° 0 mm 1 mps 752 mmHg 89%
    08:00 +28°C° 0 mm 2 mps 753 mmHg 80%
    09:00 +30°C° 0 mm 2 mps 754 mmHg 72%
    10:00 +31°C° 0.2 mm 2 mps 753 mmHg 66%
    11:00 +33°C° 0.2 mm 3 mps 753 mmHg 61%
    12:00 +35°C° 0.2 mm 3 mps 753 mmHg 56%
    13:00 +35°C° 0.2 mm 3 mps 752 mmHg 55%
    14:00 +35°C° 0.2 mm 3 mps 751 mmHg 54%
    15:00 +34°C° 0.2 mm 3 mps 751 mmHg 53%
    16:00 +33°C° 0 mm 3 mps 751 mmHg 60%
    17:00 +30°C° 0 mm 3 mps 751 mmHg 68%
    18:00 +28°C° 0 mm 2 mps 752 mmHg 75%
    19:00 +27°C° 0.1 mm 2 mps 752 mmHg 82%
    20:00 +26°C° 0.1 mm 2 mps 753 mmHg 88%
    21:00 +26°C° 0.1 mm 2 mps 753 mmHg 94%
    22:00 +25°C° 0.1 mm 2 mps 753 mmHg 94%
    23:00 +25°C° 0.1 mm 2 mps 753 mmHg 95%

    23 February, Saturday

    Time Temperature Precipitation Wind Pressure Humidity
    00:00 +25°C° 0.1 mm 2 mps 753 mmHg 95%
    01:00 +25°C° 0.1 mm 2 mps 752 mmHg 95%
    02:00 +25°C° 0.1 mm 1 mps 752 mmHg 96%
    03:00 +25°C° 0.1 mm 1 mps 751 mmHg 96%
    04:00 +25°C° 0.1 mm 1 mps 752 mmHg 96%
    05:00 +25°C° 0.1 mm 1 mps 752 mmHg 96%
    06:00 +25°C° 0.1 mm 1 mps 752 mmHg 97%
    07:00 +26°C° 0.1 mm 2 mps 753 mmHg 90%
    08:00 +28°C° 0.1 mm 2 mps 753 mmHg 83%
    09:00 +29°C° 0.1 mm 3 mps 754 mmHg 77%
    10:00 +31°C° 0 mm 3 mps 754 mmHg 69%
    11:00 +33°C° 0 mm 3 mps 753 mmHg 61%
    12:00 +34°C° 0 mm 3 mps 753 mmHg 53%
    13:00 +34°C° 0 mm 3 mps 752 mmHg 53%
    14:00 +34°C° 0 mm 3 mps 751 mmHg 53%
    15:00 +34°C° 0 mm 3 mps 751 mmHg 52%
    16:00 +33°C° 0 mm 3 mps 751 mmHg 59%
    17:00 +30°C° 0 mm 3 mps 751 mmHg 67%
    18:00 +28°C° 0 mm 2 mps 752 mmHg 74%
    19:00 +27°C° 0.1 mm 2 mps 752 mmHg 81%
    20:00 +26°C° 0.1 mm 2 mps 753 mmHg 88%
    21:00 +26°C° 0.1 mm 1 mps 753 mmHg 95%
    22:00 +25°C° 0.1 mm 1 mps 753 mmHg 95%
    23:00 +25°C° 0.1 mm 1 mps 753 mmHg 96%

    24 February, Sunday

    Time Temperature Precipitation Wind Pressure Humidity
    00:00 +25°C° 0.1 mm 1 mps 753 mmHg 97%
    01:00 +25°C° 0.1 mm 1 mps 752 mmHg 97%
    02:00 +25°C° 0.1 mm 1 mps 752 mmHg 97%
    03:00 +25°C° 0.1 mm 1 mps 752 mmHg 98%
    04:00 +25°C° 0.1 mm 1 mps 752 mmHg 98%
    05:00 +25°C° 0.1 mm 1 mps 752 mmHg 98%
    06:00 +25°C° 0.1 mm 1 mps 753 mmHg 98%
    07:00 +26°C° 0.1 mm 1 mps 753 mmHg 91%
    08:00 +28°C° 0.1 mm 2 mps 754 mmHg 84%
    09:00 +29°C° 0.1 mm 3 mps 754 mmHg 78%
    10:00 +30°C° 0 mm 3 mps 754 mmHg 70%
    11:00 +33°C° 0 mm 3 mps 753 mmHg 62%
    12:00 +34°C° 0 mm 3 mps 753 mmHg 55%
    13:00 +34°C° 0 mm 3 mps 752 mmHg 54%
    14:00 +34°C° 0 mm 3 mps 752 mmHg 53%
    15:00 +34°C° 0 mm 3 mps 751 mmHg 52%
    16:00 +31°C° 0 mm 3 mps 751 mmHg 60%
    17:00 +29°C° 0 mm 2 mps 751 mmHg 68%
    18:00 +28°C° 0 mm 2 mps 752 mmHg 76%
    19:00 +26°C° 0.1 mm 2 mps 752 mmHg 83%
    20:00 +25°C° 0.1 mm 1 mps 753 mmHg 90%
    21:00 +24°C° 0.1 mm 1 mps 753 mmHg 97%
    22:00 +24°C° 0.1 mm 1 mps 753 mmHg 97%
    23:00 +24°C° 0.1 mm 1 mps 753 mmHg 98%
    Show more